Theta_e
338 338 340 340 341 340 339 339 339 340 339 339 339 339 339 339 340 340 340 340 340 340 340 340 339 337 335 335 334 333 332 331 331 332 332 332 332 333 335 336 337 337 338 337 337 337 337 337 337 337 337 337 337 337 334 333 333 332 330 329 328 328 327 328 329 326 319 314 312 311 309 308 307 307 306 305 305 304 304 304 303 303 303 303 302
342 343 341 340 341 341 340 339 339 339 339 339 339 339 339 339 340 340 340 340 341 341 340 340 339 337 336 336 335 335 334 333 332 332 332 333 332 333 335 336 337 337 337 337 337 337 337 337 337 337 337 337 337 336 333 332 331 331 329 327 326 326 325 323 323 321 315 311 310 309 308 307 307 307 306 305 305 305 304 304 304 303 303 303 302
347 348 344 340 341 341 340 339 339 340 339 339 339 339 339 339 340 340 340 340 341 341 341 340 339 337 337 337 336 336 336 334 333 333 333 333 332 333 336 336 337 337 338 337 338 337 337 337 337 337 337 337 336 335 333 332 331 330 329 327 325 323 321 320 320 319 315 311 310 312 311 310 308 307 307 306 305 305 305 304 304 304 303 303 301
347 349 347 342 340 340 340 339 339 340 339 339 339 339 339 339 340 340 340 340 341 341 341 340 340 339 338 338 337 337 337 335 334 333 333 333 333 334 336 336 337 338 338 337 337 337 337 337 337 338 337 336 336 335 334 332 331 329 328 328 326 321 317 316 318 318 317 314 314 314 311 311 314 310 306 307 306 306 305 305 305 304 304 303 301
345 347 347 344 341 340 340 340 339 339 339 339 339 339 339 340 339 340 340 340 340 340 340 340 339 339 338 338 337 337 336 335 334 334 334 334 334 335 336 336 337 338 337 337 338 337 337 337 338 338 337 336 336 335 334 334 332 330 328 328 328 325 319 315 316 317 318 319 318 316 312 314 318 312 306 306 306 307 307 305 305 305 304 303 301
343 344 346 346 342 340 340 340 340 339 339 339 339 339 339 340 340 339 340 340 340 340 339 339 339 338 337 336 335 335 335 335 334 334 334 335 335 335 335 337 337 338 338 338 338 337 336 337 338 337 337 336 336 335 334 334 333 331 330 329 328 328 324 317 316 318 318 318 319 318 316 318 317 309 308 309 305 305 307 306 306 305 304 303 302
338 342 346 346 343 341 340 340 340 340 340 340 339 339 339 340 340 339 339 339 339 339 339 338 338 337 337 336 334 334 334 334 334 334 334 334 335 336 336 337 338 338 338 338 338 337 336 337 337 337 336 336 335 334 334 334 333 332 331 330 328 328 327 321 318 319 318 316 317 317 317 319 315 309 310 311 308 305 304 305 307 306 305 303 302
338 342 347 347 344 341 340 340 340 341 340 340 339 339 339 339 340 340 339 339 339 339 339 338 337 337 336 335 335 334 335 335 335 334 334 334 335 336 337 338 338 338 338 338 338 337 336 336 336 336 336 335 334 334 334 333 333 332 330 330 329 327 327 326 322 320 319 317 316 317 320 319 314 311 311 310 311 311 305 304 305 305 305 303 302
338 342 346 347 344 341 341 341 341 341 340 340 340 339 339 339 339 339 339 339 339 339 338 337 337 337 336 335 335 335 335 335 335 335 334 335 336 337 337 338 338 338 338 337 337 336 336 336 336 336 335 334 334 333 333 333 332 332 331 329 329 328 327 327 325 323 322 320 318 318 320 317 312 311 310 308 309 312 309 305 303 303 303 303 302
339 342 345 345 343 342 342 341 341 341 340 340 340 339 339 339 339 339 339 339 339 339 338 338 337 337 336 335 335 335 335 335 335 335 335 336 337 337 337 338 338 338 338 337 336 336 336 336 335 335 335 334 333 333 332 332 332 332 332 331 330 328 327 326 326 325 324 323 320 319 319 316 312 308 306 306 306 306 308 305 302 303 304 302 302
341 342 345 344 343 342 342 342 341 340 340 340 339 339 339 339 338 339 339 339 339 339 338 338 337 337 336 336 335 335 335 335 335 335 336 337 337 337 337 338 338 337 337 336 336 336 336 336 335 334 334 333 332 332 332 332 331 331 331 330 330 328 327 326 325 325 324 323 321 320 320 318 317 313 310 308 305 304 308 306 301 302 303 302 302
341 343 345 345 344 343 342 341 341 340 340 340 339 339 339 338 338 338 339 339 339 338 338 338 337 337 337 336 335 335 335 335 335 336 336 337 337 337 337 337 337 336 336 336 335 335 335 335 334 334 333 333 332 332 332 331 330 330 329 329 329 328 327 326 326 324 324 323 322 320 321 321 322 322 319 315 310 307 308 305 301 301 303 302 302
342 343 345 346 346 345 342 341 341 340 340 339 339 339 338 338 338 338 338 338 338 338 338 338 337 337 336 336 336 336 336 336 336 336 336 337 337 337 337 337 336 336 335 335 335 334 334 334 334 334 333 333 332 331 331 330 329 328 329 328 328 327 327 326 326 325 324 325 324 322 322 322 322 322 321 319 314 308 306 304 301 302 304 302 301
341 343 344 345 345 345 342 341 341 340 340 339 339 339 338 338 338 338 338 338 338 338 338 337 337 337 336 336 336 336 336 336 336 336 336 337 336 337 337 337 336 336 335 335 335 334 334 334 333 333 333 332 332 330 329 328 328 327 327 327 327 326 326 326 325 325 325 324 324 323 322 323 323 321 319 319 315 309 307 306 303 303 304 301 299
339 343 344 345 345 343 342 341 341 341 340 340 339 339 339 338 338 338 338 338 338 338 338 338 337 336 336 336 336 336 336 336 336 336 336 336 337 337 337 337 336 336 335 335 334 334 333 333 333 332 332 331 330 329 328 327 326 326 326 325 325 324 324 324 324 324 324 324 324 324 323 323 321 318 316 316 315 312 309 308 305 305 305 302 299
336 342 344 345 344 342 341 342 342 341 340 340 339 339 339 339 338 338 338 338 338 338 338 338 337 337 336 336 336 336 336 336 336 336 336 336 336 336 336 336 336 335 335 334 334 333 333 332 332 331 330 329 328 327 326 326 325 325 324 323 322 322 321 321 322 322 322 322 321 321 319 316 315 314 313 312 312 311 310 309 307 306 306 304 303
334 340 343 345 344 342 341 342 342 342 341 340 340 339 339 339 338 338 338 338 338 338 338 338 338 337 336 336 336 336 336 336 336 336 336 336 336 336 336 336 336 335 335 334 333 333 332 331 331 329 328 327 326 326 325 324 324 323 323 322 321 320 319 319 318 318 318 317 315 314 311 310 310 311 311 311 310 309 309 308 307 306 305 306 305
331 337 341 344 345 343 341 342 342 342 341 341 340 340 340 339 339 338 338 338 338 338 338 338 338 337 336 336 336 336 336 336 336 336 336 336 336 336 336 335 335 335 334 334 333 332 331 331 329 328 327 326 324 324 323 323 323 322 321 321 320 319 318 317 316 315 314 313 311 310 309 309 309 309 310 309 309 309 308 307 307 306 305 305 303
330 334 339 342 344 343 341 341 342 342 342 341 340 340 340 339 339 339 338 338 338 338 338 338 338 337 336 336 336 336 336 336 336 336 336 336 336 336 335 335 335 334 334 333 332 332 331 330 328 327 325 324 323 322 322 321 321 320 320 319 319 318 317 316 315 313 312 311 310 309 308 308 308 308 308 308 308 308 308 308 307 305 305 305 303
329 333 336 339 342 342 341 341 342 342 342 341 341 340 340 340 339 339 339 338 338 339 339 338 338 337 336 336 336 335 335 336 336 336 336 336 336 336 335 335 335 334 334 333 332 331 330 329 327 326 324 323 322 321 320 319 318 318 317 316 316 316 315 314 313 312 310 310 309 309 308 308 307 307 306 306 306 306 307 307 307 306 305 305 303
326 332 335 337 340 340 340 341 342 342 341 341 341 340 340 340 339 339 339 338 339 339 339 338 338 337 336 336 336 335 335 336 336 336 336 336 336 336 335 335 335 334 334 333 332 330 329 328 326 325 324 322 321 320 318 317 316 315 314 313 314 314 314 313 312 311 310 309 309 308 308 307 306 306 304 303 303 304 305 306 307 307 306 304 303
322 329 333 336 339 339 338 340 341 341 341 341 341 340 340 340 340 340 339 339 339 338 338 339 338 337 336 336 336 335 335 335 336 335 335 336 336 335 335 335 334 334 334 333 331 329 328 327 326 324 323 321 320 319 317 316 314 313 311 311 312 313 312 311 311 310 309 308 308 308 307 305 304 303 302 301 301 302 304 305 306 306 306 304 302
318 325 331 335 337 337 337 339 339 340 340 340 341 341 340 341 340 340 340 339 339 339 339 339 338 337 337 336 336 335 335 335 335 335 335 335 335 335 334 334 334 334 333 332 330 329 327 326 325 323 322 320 319 318 316 315 313 311 310 310 311 311 311 311 310 309 309 308 307 306 305 304 303 302 301 300 300 300 302 303 305 305 304 303 302
317 321 328 333 336 337 338 340 339 339 340 340 340 341 341 341 340 340 340 339 339 339 339 338 338 337 337 336 336 335 334 335 335 334 334 335 335 334 334 334 334 333 332 331 329 328 327 325 324 322 321 319 319 317 316 314 312 311 310 309 310 310 310 310 309 309 308 307 306 305 304 303 303 301 301 300 299 299 299 301 302 303 304 303 302
318 320 326 331 335 338 340 340 339 338 339 340 340 341 341 341 341 340 340 339 339 339 339 339 338 337 337 336 335 335 335 335 335 334 334 334 334 334 333 333 333 332 331 330 328 326 325 325 323 322 321 320 319 318 316 314 312 310 310 310 309 309 309 309 308 308 307 306 305 304 303 303 302 301 301 300 299 299 298 299 300 301 302 302 302
318 321 323 328 333 337 339 340 338 338 339 339 339 340 341 341 341 340 340 339 339 339 339 338 338 337 337 336 335 335 335 335 335 334 334 334 334 334 333 333 332 331 331 329 328 326 325 324 323 322 320 320 319 318 316 314 312 310 310 310 309 309 308 308 307 307 306 305 304 304 303 302 302 302 301 301 300 300 299 299 298 299 300 300 300
317 321 323 327 332 337 338 339 338 337 339 339 339 340 340 340 340 340 340 339 339 340 339 338 338 337 337 336 335 335 335 335 335 334 334 333 333 333 333 332 332 331 330 329 328 326 325 324 323 321 321 320 319 318 316 313 311 310 309 309 308 308 308 307 307 306 305 304 304 303 303 302 302 302 301 301 301 300 300 300 299 299 299 299 299
316 320 324 329 332 336 338 339 338 337 338 339 339 340 340 340 340 339 339 339 339 340 339 339 338 338 337 336 335 335 335 335 334 333 333 333 332 332 332 331 331 331 330 330 329 327 326 324 322 321 321 320 318 317 315 312 310 309 309 308 308 307 307 306 306 305 304 303 302 302 302 302 302 301 301 301 301 301 300 300 299 299 299 299 299
318 320 326 331 333 336 338 339 338 337 337 339 339 339 340 340 340 339 339 339 339 339 339 339 338 338 337 336 335 335 334 334 334 333 333 332 331 331 331 330 331 331 331 330 330 328 327 324 322 320 320 319 318 316 315 312 310 309 308 307 307 307 306 306 305 304 303 302 302 302 302 302 302 302 301 301 301 301 300 298 298 299 299 299 298
320 322 326 331 333 336 337 339 339 337 337 338 339 339 340 340 339 339 339 339 339 339 339 339 338 338 337 336 335 335 334 334 333 333 332 332 331 330 329 329 330 331 331 330 329 328 326 324 322 321 319 318 317 316 314 312 310 308 307 307 306 306 306 305 304 303 303 302 303 302 302 302 302 302 301 302 301 300 299 298 299 299 299 298 296
320 323 326 329 333 337 338 339 339 338 337 337 338 339 339 339 339 339 339 339 339 339 339 338 338 338 337 336 335 335 334 333 333 332 332 331 330 329 329 330 331 330 329 329 329 327 325 323 323 321 320 318 317 316 313 311 309 308 307 306 306 306 305 305 304 303 303 303 303 303 303 303 302 302 302 301 300 300 299 300 300 300 299 297 295
322 323 328 331 335 337 339 339 338 337 337 337 338 339 339 339 339 339 339 339 339 339 339 338 338 338 337 336 335 334 334 333 333 332 332 331 330 329 328 328 329 328 327 328 327 326 325 323 322 321 320 319 318 316 313 310 308 307 306 306 305 305 305 304 304 303 304 304 303 303 303 303 302 303 302 301 300 300 300 300 299 299 298 296 294
330 329 332 335 337 338 338 338 337 336 337 338 338 339 339 339 339 339 339 339 339 339 339 338 338 338 337 336 335 334 334 333 333 331 331 330 329 327 326 326 327 327 325 326 326 325 323 323 321 320 320 319 317 315 312 309 308 307 306 306 305 305 304 304 303 303 304 303 303 303 303 302 303 302 300 300 300 301 301 299 297 298 297 294 294
340 338 338 339 339 339 338 336 336 337 337 338 338 339 339 339 339 339 339 339 339 338 338 339 338 338 337 336 335 335 334 333 332 331 330 329 328 327 326 326 326 325 323 324 325 323 321 322 321 320 319 318 317 315 311 309 307 307 306 306 305 304 304 303 303 303 303 303 303 302 302 302 302 301 300 301 301 301 301 299 297 297 295 294 296
345 343 342 342 341 342 340 336 336 337 337 338 338 338 339 339 338 338 338 338 339 338 338 338 338 338 337 336 335 335 334 333 332 331 330 328 327 326 325 325 325 324 323 324 324 322 321 322 321 320 319 317 316 315 311 308 307 307 306 305 305 305 304 304 303 303 303 303 302 301 301 301 301 300 300 301 302 301 302 299 296 295 294 295 298
343 343 342 341 339 338 338 336 336 337 337 337 338 338 338 338 338 338 338 338 338 338 338 338 338 338 337 336 335 334 333 332 331 330 329 327 326 326 326 325 323 322 321 322 322 321 321 322 321 319 318 317 316 314 310 308 307 307 306 305 305 305 304 304 303 303 303 303 301 300 301 301 301 299 299 301 301 302 301 299 295 293 294 297 299
339 338 336 334 334 333 334 335 336 337 337 338 338 338 338 337 337 337 337 338 338 338 338 338 337 337 336 336 335 334 333 332 330 329 328 326 325 325 326 325 322 319 319 319 319 318 319 322 322 320 318 317 315 313 310 308 307 307 306 306 305 305 304 304 303 303 303 303 301 301 301 302 301 299 299 301 301 300 300 297 293 294 296 298 300
338 338 333 332 332 334 335 336 336 336 337 338 337 338 337 337 337 337 337 337 338 338 338 337 337 337 336 336 335 334 333 331 330 329 327 326 326 325 325 324 321 319 319 318 318 317 317 320 321 321 319 318 315 313 309 307 307 307 306 306 305 305 304 304 304 303 303 302 301 302 302 302 301 299 300 301 300 298 298 296 293 295 298 299 299
334 336 334 332 332 334 335 335 335 335 336 338 338 338 337 336 336 337 337 337 337 337 338 337 337 337 336 336 335 334 333 331 330 329 327 327 327 325 323 322 321 320 318 318 318 318 318 320 321 320 319 317 315 312 309 307 307 307 306 306 305 305 304 304 303 303 303 302 302 302 303 303 301 300 301 301 298 296 296 295 294 296 298 298 298
328 331 334 334 333 333 333 333 334 335 336 338 338 337 336 336 336 336 337 337 337 337 337 337 337 336 336 335 334 333 332 331 330 329 328 328 326 323 322 321 319 319 318 317 317 317 318 320 319 318 317 316 315 312 309 307 307 307 306 306 305 304 304 304 303 303 303 303 303 303 303 302 301 300 302 300 296 294 295 295 295 297 298 297 298
324 328 333 333 333 333 333 333 334 335 336 336 337 336 335 335 336 336 336 337 337 337 337 337 337 336 335 334 334 333 333 331 330 329 329 328 325 323 322 321 319 318 317 316 315 314 316 318 317 315 315 315 314 312 309 307 307 306 306 306 305 305 304 304 304 303 303 303 303 302 302 301 300 301 302 298 294 292 293 294 295 296 296 297 298
323 327 331 332 332 332 333 334 334 334 335 336 336 335 334 335 335 336 336 337 337 336 336 336 336 335 335 334 333 333 332 331 330 329 328 326 324 322 321 320 319 317 316 315 314 313 313 314 312 311 311 313 313 311 309 308 307 306 306 306 305 305 304 304 304 303 303 303 302 302 301 300 300 302 301 297 292 291 292 293 294 294 296 298 299
325 327 329 330 331 330 332 334 334 335 335 335 334 334 333 334 334 335 336 336 336 335 335 335 335 334 333 332 332 331 331 330 330 328 326 324 322 320 320 320 318 316 314 314 313 312 311 309 308 308 309 311 312 311 309 308 307 306 306 306 305 305 305 304 304 303 303 303 303 302 301 300 300 302 302 298 294 292 292 294 296 296 299 301 300
325 325 326 329 329 329 331 333 334 335 335 335 334 333 332 333 334 334 335 335 335 334 334 333 333 331 331 331 330 329 328 328 329 328 325 323 321 319 319 319 317 314 313 313 312 310 309 308 308 308 308 308 309 309 308 309 308 306 306 306 306 305 305 304 304 303 303 303 303 302 302 300 300 302 302 300 298 297 297 299 300 300 301 301 300
324 324 326 328 328 328 330 331 333 335 334 334 335 333 332 332 333 334 335 335 334 334 333 333 332 331 331 330 329 328 328 328 328 327 325 322 320 318 317 317 316 314 314 313 311 310 309 309 308 307 306 306 307 307 307 309 308 307 306 306 305 305 305 304 304 303 303 303 303 303 302 300 300 302 302 301 300 300 301 302 302 301 301 300 300
323 324 325 328 328 329 329 330 331 333 334 334 335 334 332 332 333 334 334 334 334 333 333 332 331 331 331 330 328 327 328 328 328 326 324 322 320 318 316 315 314 314 314 313 311 309 309 308 308 307 306 305 306 306 306 308 308 307 306 306 305 305 304 304 304 304 304 303 303 303 302 301 301 302 302 302 301 301 301 302 302 301 300 300 300
323 323 325 327 327 326 327 328 329 331 333 333 334 334 333 332 332 333 334 334 333 332 331 330 330 330 329 328 327 327 326 327 326 323 322 321 319 317 315 314 314 313 313 312 311 309 309 308 307 307 306 305 305 305 305 306 307 307 306 305 305 304 303 303 303 303 303 303 303 303 303 302 302 302 302 302 302 301 301 302 302 301 300 300 300
320 322 325 327 326 325 325 325 327 329 331 332 332 333 333 332 332 332 333 332 332 330 330 330 329 328 327 326 326 326 325 324 323 321 319 319 318 316 316 316 315 314 314 313 311 309 309 309 307 306 305 304 304 305 305 306 307 308 306 305 305 304 303 303 303 303 303 303 303 303 303 303 303 303 302 302 301 301 302 302 301 301 301 301 300
318 321 324 325 325 325 325 325 326 328 330 331 331 332 332 331 332 332 331 331 330 329 329 328 327 326 325 324 324 324 324 323 321 320 319 318 318 317 316 316 315 316 317 318 315 313 312 310 309 309 308 306 305 306 307 307 307 308 307 307 306 305 304 303 303 303 303 303 302 303 303 303 303 302 301 301 301 301 302 302 301 301 301 301 300
318 320 322 322 323 324 325 325 327 328 329 330 330 330 330 331 331 331 330 329 328 327 327 326 325 324 323 323 322 322 322 321 320 318 317 317 316 316 316 316 316 316 318 319 319 319 317 313 311 311 312 312 311 310 310 309 309 308 308 308 307 307 305 304 304 303 303 303 303 303 303 303 302 302 301 301 301 302 302 301 301 301 301 301 300
318 319 319 319 320 321 322 323 324 327 328 329 329 329 329 329 329 329 329 328 327 326 325 325 325 324 323 322 322 321 321 320 319 318 317 315 314 314 315 316 316 317 317 317 317 317 316 315 314 313 312 312 313 312 312 311 310 309 309 308 307 306 305 304 304 303 303 302 302 302 302 302 302 302 302 301 302 302 302 302 302 302 302 301 301
Wind_Speed
15 17 19 21 22 24 25 26 29 31 32 34 36 37 37 35 34 35 35 35 35 35 33 33 33 32 30 30 29 27 26 25 25 24 23 22 20 19 18 18 17 15 14 14 13 12 11 12 13 13 13 12 12 13 14 14 14 17 19 20 20 21 23 23 23 24 22 17 13 12 13 13 11 11 10 9 9 9 9 9 9 9 9 9 9
8 8 11 18 21 23 26 27 30 32 33 35 37 38 38 36 36 36 36 36 37 37 36 35 35 34 32 32 31 28 27 26 25 25 24 22 20 19 19 18 17 16 15 14 14 13 12 12 14 15 13 13 13 13 15 16 16 19 21 21 21 22 24 24 25 22 18 16 15 11 8 8 9 10 10 10 10 8 7 7 7 7 7 7 6
6 7 10 17 21 25 26 27 32 34 32 33 34 35 37 37 36 36 36 37 38 39 39 37 36 34 32 30 30 28 27 26 25 24 23 22 21 20 19 19 18 17 16 14 14 13 12 13 15 15 14 13 14 16 17 18 18 20 22 23 22 22 22 25 26 20 16 19 16 8 3 4 3 6 9 11 11 9 8 7 6 6 5 5 4
9 9 9 14 19 23 26 28 31 31 29 31 33 36 39 38 37 36 37 38 39 39 39 38 37 34 31 29 28 27 26 26 26 24 24 23 22 21 21 20 19 18 16 14 14 13 13 14 15 15 14 14 15 17 19 20 21 21 23 24 23 23 23 27 26 18 17 18 11 3 2 3 1 4 8 9 11 11 9 7 6 6 5 4 3
13 13 12 11 15 22 28 30 30 30 31 34 37 39 39 38 37 36 36 37 38 38 38 37 36 33 30 26 25 25 24 25 26 25 25 25 24 23 22 21 20 18 16 14 14 14 13 14 15 14 14 14 16 18 19 21 21 22 22 23 24 24 24 27 26 17 17 18 9 4 3 1 2 5 7 6 9 12 11 10 8 7 6 4 3
14 15 14 13 16 22 28 29 29 30 35 39 40 39 38 37 36 35 36 36 37 37 37 37 36 34 31 28 27 26 25 27 30 29 27 26 24 23 22 21 20 18 16 15 14 14 14 14 15 14 14 14 16 17 19 20 21 21 22 23 23 24 23 26 26 19 18 18 11 6 5 3 4 9 6 2 5 9 10 12 11 9 8 6 3
13 13 13 14 16 18 22 27 31 34 39 40 37 37 37 37 36 36 35 36 36 37 37 37 37 36 35 33 31 29 27 28 30 30 28 26 24 23 22 22 20 19 17 15 15 15 15 15 15 14 14 14 16 18 20 21 21 20 21 22 23 23 23 25 28 23 19 19 14 9 6 4 8 11 6 3 3 4 7 11 13 11 10 8 4
11 11 11 13 14 16 21 28 35 40 40 37 36 38 39 38 37 36 35 35 36 36 38 39 39 38 36 34 32 31 29 28 28 28 27 26 25 24 23 22 21 19 17 16 16 16 15 15 15 15 15 15 17 19 20 20 20 19 20 22 22 23 23 23 26 25 23 20 16 11 6 5 10 10 9 8 4 2 4 7 10 11 11 10 6
11 11 12 13 16 21 26 31 37 41 38 37 39 40 38 36 36 36 36 35 35 37 39 39 39 38 36 34 31 30 29 28 28 27 26 26 25 24 23 23 21 19 18 16 16 17 16 16 15 16 15 16 18 19 19 18 19 19 20 21 22 23 23 22 23 24 25 23 19 16 9 9 11 8 10 10 4 3 3 3 7 9 9 11 10
9 10 11 14 19 27 32 34 36 35 33 35 37 35 34 35 35 36 37 36 36 37 39 40 39 37 36 34 32 29 27 27 27 27 27 27 26 25 25 23 22 20 18 17 17 17 17 17 16 16 16 17 19 19 18 18 19 19 19 20 20 21 22 23 22 22 24 24 22 20 15 12 10 7 9 11 5 3 3 3 9 11 8 10 11
8 10 10 13 19 27 30 30 31 30 29 30 32 33 35 35 35 37 37 36 37 38 40 40 39 37 36 35 33 31 29 28 28 28 28 28 27 26 25 24 22 20 19 18 18 19 18 18 17 17 17 18 19 18 17 18 18 19 18 19 19 20 21 22 23 22 22 23 23 22 20 16 13 10 12 15 10 5 4 4 10 12 8 8 9
10 10 10 11 13 17 19 22 25 25 25 28 32 34 35 36 36 36 37 38 39 39 40 41 39 38 37 36 34 33 32 31 31 30 30 30 29 27 25 24 22 21 20 20 20 20 19 19 18 18 18 19 19 18 17 16 16 17 18 18 18 19 20 21 23 23 22 22 23 22 21 19 17 15 15 16 15 12 9 6 9 11 6 5 8
11 11 11 11 11 12 14 19 22 24 27 31 34 35 35 36 37 37 39 40 38 39 40 40 39 38 37 36 35 34 34 34 33 32 32 31 30 29 27 25 24 23 23 22 22 21 21 20 20 19 19 19 18 17 16 15 16 16 18 18 19 19 19 20 22 22 22 22 21 21 20 19 18 16 15 15 16 16 11 8 9 8 6 8 9
11 12 12 12 12 12 14 20 23 26 31 34 35 35 35 36 37 39 39 38 38 38 39 39 39 38 37 36 35 34 34 34 34 33 33 33 31 30 29 28 27 26 26 25 23 22 21 21 20 20 19 18 17 17 16 15 15 16 17 18 18 18 19 19 19 20 20 20 20 20 19 19 18 17 17 16 16 16 14 13 11 6 6 9 8
11 12 14 14 14 15 17 21 25 28 32 34 34 35 35 36 38 39 38 38 39 38 38 38 38 36 36 36 35 35 35 34 34 34 34 33 32 31 30 29 29 28 27 25 24 23 22 21 20 20 19 18 17 17 16 16 16 16 16 17 17 18 18 18 18 18 18 19 19 18 18 18 18 18 17 17 17 17 18 17 17 9 5 4 4
10 12 14 15 15 16 18 22 25 29 32 33 34 35 36 37 39 41 40 39 39 38 39 38 37 36 36 36 35 35 35 34 34 33 33 33 32 32 31 30 29 28 27 26 24 23 23 22 21 20 19 18 17 17 17 16 16 16 17 16 17 17 17 17 17 16 16 16 16 17 16 17 16 16 15 14 14 16 17 18 20 18 10 3 1
10 11 13 15 14 15 19 23 25 28 30 32 35 39 41 41 39 39 37 36 38 39 38 37 36 36 36 36 36 36 36 35 35 34 33 33 32 32 31 30 29 28 27 26 25 24 23 22 22 20 19 18 17 17 16 16 16 16 16 16 16 16 15 15 15 15 15 15 14 14 14 14 14 14 14 13 12 13 15 17 19 23 20 9 3
12 13 13 14 15 15 20 25 28 30 31 34 38 41 41 40 38 37 37 39 41 40 38 36 36 36 36 37 37 37 37 36 35 34 33 33 33 32 31 31 30 29 28 27 26 25 24 23 22 21 19 18 17 17 16 16 16 16 16 15 15 15 15 15 15 15 15 14 14 13 12 13 13 13 13 13 13 13 14 15 17 23 24 17 11
10 11 11 12 13 15 19 25 29 31 33 35 36 35 33 34 35 37 39 40 39 38 37 37 36 37 37 37 37 37 36 35 35 34 34 34 34 33 32 31 30 30 29 28 27 27 26 25 23 21 20 18 17 17 16 16 16 16 16 16 15 16 16 15 15 15 15 15 15 14 13 13 13 13 12 11 12 12 13 13 15 21 23 20 18
9 10 11 12 13 15 21 26 29 32 34 33 32 32 32 33 34 35 36 35 36 38 38 38 37 37 35 35 36 36 36 35 35 35 35 35 34 33 33 32 31 30 29 29 28 27 27 25 24 22 20 19 18 17 17 16 17 17 16 16 16 16 16 16 16 16 16 15 15 14 14 13 12 12 11 11 11 12 12 12 13 18 20 18 19
11 11 12 14 14 15 22 28 29 28 28 28 30 32 32 32 32 34 34 34 36 38 39 37 36 35 34 34 36 36 35 35 35 35 35 35 34 34 33 32 31 30 30 29 28 28 27 25 24 23 21 20 19 18 17 17 17 17 16 15 16 17 17 17 17 17 17 16 15 15 14 13 12 10 10 10 10 10 11 12 12 14 17 17 17
12 13 13 14 14 14 20 25 24 22 23 27 29 30 30 32 34 34 35 36 38 38 38 36 34 34 34 35 35 35 35 35 35 35 35 35 35 34 33 32 31 30 29 29 28 27 26 25 24 23 22 20 19 18 17 17 17 17 16 16 16 17 17 18 18 18 17 16 15 15 14 13 11 10 10 9 9 9 9 10 11 11 14 16 16
12 13 13 13 14 15 18 20 21 23 26 28 29 29 32 34 34 34 36 38 39 38 37 35 34 34 34 34 35 34 35 35 35 35 35 35 35 34 33 32 30 30 29 28 28 27 27 26 24 23 22 21 19 18 17 17 17 17 16 16 16 17 18 18 19 18 18 17 16 15 15 14 12 11 11 10 9 9 8 9 10 10 12 15 15
11 11 12 12 13 13 13 13 16 21 24 26 28 30 31 32 32 34 37 38 37 35 35 34 34 34 34 34 35 35 35 36 35 35 35 35 35 34 33 31 30 29 29 28 27 27 26 26 25 24 23 21 20 18 18 18 17 17 16 16 16 17 18 18 19 18 18 18 17 16 15 15 14 13 12 11 10 9 9 10 10 11 12 14 13
10 11 12 13 12 11 11 11 14 20 24 27 29 30 30 32 33 35 36 36 36 35 35 34 34 33 34 35 36 36 36 36 36 35 35 36 35 34 32 31 30 30 28 27 27 27 27 26 25 24 23 21 20 18 18 18 18 17 16 16 16 17 18 18 18 18 18 18 17 16 16 16 15 15 14 12 11 10 9 10 11 11 12 13 13
11 12 13 14 12 11 12 13 15 21 24 26 28 30 30 32 33 34 34 34 35 35 34 34 34 34 35 36 36 37 38 38 37 35 35 36 35 34 32 31 31 30 28 27 27 28 27 27 26 24 23 21 20 18 18 18 19 18 17 16 16 17 18 18 17 17 17 17 16 16 16 17 17 16 15 13 12 11 9 9 10 11 12 13 13
11 12 13 13 12 13 15 15 16 21 25 27 28 30 30 31 32 33 34 34 34 34 34 34 34 35 35 36 37 37 38 38 37 36 36 36 35 34 33 32 31 30 29 28 27 28 28 27 26 24 23 21 20 19 19 19 19 19 18 17 17 17 18 18 17 17 16 16 16 16 17 17 17 16 15 14 12 11 9 7 7 9 12 13 14
11 12 13 13 13 14 15 14 15 20 24 26 27 29 30 30 31 32 33 34 35 34 34 34 34 34 35 36 36 36 37 37 37 36 36 36 35 34 33 33 32 31 30 28 26 27 28 27 26 25 23 22 21 20 20 20 20 19 19 18 18 18 18 18 17 16 16 15 15 16 17 17 17 15 14 13 12 11 10 7 6 9 12 13 14
11 13 13 13 14 14 15 14 15 17 21 24 25 26 28 29 30 32 33 35 35 34 34 34 34 34 35 35 35 35 35 36 36 36 36 36 35 34 34 34 33 32 31 28 26 27 28 28 27 25 24 23 22 21 20 20 21 21 20 19 19 19 19 19 18 17 16 16 16 16 16 15 15 15 14 13 13 13 11 9 9 13 14 13 14
11 12 13 14 16 16 15 15 14 15 20 23 24 27 29 30 31 32 34 35 35 34 33 33 33 33 33 34 34 34 34 35 36 37 36 35 34 34 34 34 33 32 31 29 28 28 28 29 28 27 26 24 23 21 20 21 21 21 20 20 20 20 19 19 19 18 18 17 17 16 16 15 16 16 16 16 16 14 10 7 10 15 16 15 15
10 11 11 12 14 14 14 15 15 16 21 24 25 28 29 29 30 32 34 35 35 34 33 33 33 32 33 33 34 34 35 36 36 36 36 35 35 34 35 34 34 33 31 30 30 30 30 30 29 28 27 26 24 22 21 21 21 21 20 20 20 20 20 20 19 19 20 19 18 17 17 18 18 18 19 18 17 13 9 9 12 15 15 15 15
8 8 9 9 11 13 15 16 16 18 23 25 26 27 27 29 31 33 33 34 34 34 33 32 32 32 33 34 34 35 35 36 36 35 35 36 35 35 35 35 35 34 33 32 32 31 31 31 30 29 28 26 24 22 21 21 21 21 20 20 20 21 21 20 20 20 21 20 20 20 21 21 20 21 21 19 16 13 11 12 13 14 15 16 15
7 7 8 8 8 10 12 13 15 19 24 27 28 29 29 31 32 32 32 33 33 33 32 31 32 32 33 34 35 35 35 35 35 35 35 35 36 35 35 35 36 35 35 34 33 32 31 31 31 30 28 26 23 21 21 21 21 21 20 20 21 21 21 21 22 22 22 22 22 23 23 22 21 21 19 16 15 15 14 13 14 15 17 17 15
6 6 7 7 7 7 7 10 13 17 21 24 26 27 27 28 29 30 32 33 32 31 31 31 31 32 33 34 34 35 35 34 35 34 34 35 35 35 36 36 36 35 35 34 34 33 32 31 31 30 28 26 23 21 21 22 22 22 21 21 21 21 22 22 23 23 23 23 22 23 23 23 22 20 18 16 16 17 17 15 15 17 19 18 16
5 5 6 7 7 7 7 10 14 18 20 22 24 25 24 26 28 29 30 31 30 29 30 30 30 31 32 33 34 34 34 34 34 34 35 35 35 36 36 35 36 36 37 36 34 33 33 31 31 30 29 26 24 22 22 23 23 23 22 22 22 23 23 23 23 23 23 22 21 21 22 22 21 20 18 17 17 17 17 16 18 20 20 19 17
6 4 5 6 8 10 11 12 16 19 20 20 22 23 23 24 27 28 28 28 28 27 27 28 29 30 32 33 34 34 33 33 34 34 34 34 35 36 36 36 35 35 35 34 33 33 33 32 31 31 29 27 24 23 23 24 24 24 23 24 24 24 24 24 23 23 23 22 20 21 22 21 19 18 17 17 17 18 17 18 20 22 21 18 16
5 2 4 7 11 14 16 18 19 20 19 18 18 20 20 21 23 24 24 25 25 25 27 29 30 31 33 34 34 34 33 33 33 34 34 33 34 36 37 37 34 32 33 33 32 33 33 32 33 32 30 28 25 24 24 25 25 25 25 26 26 25 26 25 25 25 24 23 21 21 21 21 18 16 16 17 18 19 19 20 22 23 20 18 16
4 4 6 9 14 17 19 21 21 21 21 22 21 20 19 18 19 21 21 22 22 24 26 28 30 32 34 34 35 35 35 34 34 35 34 34 35 36 36 36 35 33 33 33 32 32 32 32 33 33 31 28 26 25 25 25 26 26 27 27 27 27 27 26 26 26 25 24 22 20 21 21 18 15 15 18 19 19 20 22 23 22 19 17 16
5 6 8 9 13 16 19 21 21 21 23 26 25 24 22 19 18 20 20 20 22 24 26 27 28 31 33 34 35 35 36 36 36 35 34 36 37 36 34 35 35 33 33 33 34 35 35 34 33 32 30 29 27 26 25 26 26 27 27 28 28 28 28 28 28 28 26 25 23 21 22 22 18 15 16 18 19 20 22 24 23 21 19 18 16
5 8 13 15 15 15 16 18 21 24 27 30 29 26 22 19 19 18 18 20 22 22 21 23 26 29 32 34 35 36 36 37 37 36 36 37 37 33 31 32 33 33 34 35 37 38 37 34 33 32 31 30 28 26 26 26 26 27 28 29 29 29 30 29 29 28 27 26 24 22 23 22 19 17 17 17 18 21 23 24 23 21 19 18 16
4 8 14 16 17 17 15 15 19 25 29 31 31 26 22 21 20 20 23 26 22 19 21 24 27 29 32 33 35 37 37 37 37 37 37 37 35 33 33 35 35 34 35 35 35 34 32 31 32 32 31 31 28 26 26 26 27 27 28 29 30 30 30 29 29 29 28 27 26 25 24 22 20 19 18 17 18 21 23 24 23 21 18 15 14
4 5 12 14 13 15 15 14 16 22 26 28 28 24 22 22 22 25 31 31 29 30 33 32 30 30 32 33 35 37 38 36 35 35 36 35 33 32 35 37 36 35 35 35 33 31 29 28 28 28 30 30 28 27 26 26 28 29 29 31 32 31 30 30 30 30 30 28 26 25 23 21 20 20 19 17 18 20 22 23 22 19 16 13 12
8 5 4 10 11 11 14 16 18 21 24 25 23 20 19 20 24 29 29 27 28 29 26 21 20 21 23 28 30 32 33 33 34 34 33 31 31 31 34 36 36 34 33 33 31 28 27 25 24 25 29 30 29 30 28 27 29 31 31 32 33 31 30 31 31 30 30 28 25 23 21 20 21 21 20 18 19 20 22 21 19 17 16 14 13
10 12 7 4 9 11 13 17 21 24 27 27 26 22 19 22 27 26 20 19 21 21 20 20 21 21 23 27 29 29 30 32 33 33 31 30 31 32 34 35 35 32 31 30 28 26 26 26 26 28 30 30 30 32 31 27 28 31 32 33 34 33 32 31 30 29 28 26 24 20 18 19 21 22 21 19 20 21 21 20 18 17 17 16 15
9 13 13 6 3 9 12 13 16 22 25 27 27 24 22 23 24 18 16 19 21 23 25 27 27 28 30 32 32 32 35 36 34 34 33 33 33 33 34 34 33 31 30 29 27 27 28 29 27 26 27 29 31 32 32 29 27 29 32 34 34 34 33 32 31 29 27 26 22 18 15 17 20 22 22 21 22 22 22 20 19 19 20 19 18
9 12 16 13 5 5 8 8 10 16 20 22 24 24 23 22 19 16 19 23 24 25 28 28 27 28 31 32 32 34 36 37 35 35 35 36 36 35 33 32 31 30 30 28 27 28 28 26 25 25 27 29 30 31 33 32 29 28 31 34 35 35 35 33 32 29 27 25 22 17 15 16 19 22 23 24 24 23 22 21 20 21 22 21 20
8 11 14 11 6 3 3 5 6 11 15 18 20 21 20 20 19 19 22 25 26 27 27 27 27 28 29 30 32 33 33 32 31 31 32 36 37 35 33 32 31 29 27 26 27 27 26 24 24 24 25 27 29 31 33 34 32 30 31 34 35 36 36 34 32 30 28 26 22 19 16 15 17 20 23 24 25 24 23 22 22 22 22 21 20
8 10 8 5 4 4 3 3 3 6 10 12 14 16 17 18 20 21 23 25 26 28 28 28 29 29 29 29 30 31 32 31 29 29 31 33 34 32 33 35 35 34 32 30 29 29 29 27 26 24 24 25 28 32 35 36 36 34 33 33 35 37 38 37 35 32 29 26 23 20 18 18 19 21 23 25 26 25 24 23 23 23 22 21 21
8 8 6 4 4 5 5 4 4 6 9 11 12 14 16 18 20 21 23 25 27 28 28 28 28 28 27 27 29 31 33 32 30 29 30 31 32 32 32 32 32 34 37 36 33 32 31 30 30 31 31 29 30 34 37 36 35 35 34 34 35 37 39 39 37 34 31 27 24 22 21 21 21 22 24 25 26 25 25 24 24 24 23 23 23
11 11 10 9 6 5 6 5 5 7 8 10 11 12 14 17 19 21 22 24 25 24 23 23 24 24 25 27 28 30 31 30 30 29 27 25 26 28 29 28 29 32 36 35 32 31 31 31 32 34 35 33 32 34 33 32 32 33 33 32 33 34 36 37 36 33 30 27 25 24 24 23 23 24 26 27 27 27 27 26 26 25 24 24 24
13 13 11 12 12 9 6 4 2 4 7 9 9 10 12 14 16 20 22 23 24 23 21 21 22 24 27 29 29 29 29 29 28 28 27 26 23 21 21 24 27 30 32 30 28 26 26 27 29 30 31 31 30 28 26 27 30 31 30 30 32 33 34 37 36 33 29 27 27 26 25 25 26 27 29 29 28 28 28 27 27 26 26 26 26
Wind_Direction
212 206 204 198 194 193 192 192 192 193 196 199 203 206 207 205 202 202 204 204 203 203 202 202 201 198 198 200 202 204 204 208 214 217 220 222 222 223 223 223 225 227 229 237 241 238 228 224 223 217 212 207 205 201 195 193 192 188 184 181 174 164 159 160 163 158 145 136 144 156 162 165 162 156 149 143 140 137 132 127 125 122 114 111 106
198 168 175 184 186 187 189 190 190 193 195 199 202 204 206 206 204 203 202 202 203 203 203 204 203 200 199 200 202 206 208 210 214 219 224 224 224 224 223 223 226 226 228 235 240 238 231 223 221 218 212 206 202 196 193 192 190 189 184 175 171 169 163 162 165 159 147 146 149 146 150 162 170 169 163 159 159 156 151 144 140 137 124 112 103
181 156 168 177 179 182 186 189 193 197 196 197 202 204 206 207 206 204 202 201 202 203 203 205 205 204 203 202 203 207 211 212 215 222 226 225 224 223 222 224 226 226 228 235 239 239 233 225 221 217 209 203 198 190 190 193 190 190 189 180 171 167 165 166 169 167 159 153 146 138 147 150 169 190 182 177 177 175 172 169 163 156 140 117 97
190 187 182 172 174 177 183 191 195 196 195 197 200 203 206 206 205 204 202 202 202 203 204 205 206 206 207 207 207 211 214 214 216 222 225 224 221 220 221 223 225 226 228 236 240 240 234 226 222 215 206 202 199 192 191 194 194 190 190 187 179 170 166 170 175 178 173 162 143 107 135 138 197 211 191 189 193 190 190 189 186 184 171 137 96
193 195 188 172 174 180 186 192 193 193 195 199 202 204 205 206 205 203 202 202 202 203 203 203 203 203 203 203 204 207 209 209 210 213 217 217 217 218 220 222 223 225 230 235 239 239 233 227 223 214 206 203 202 198 196 198 197 194 192 193 191 185 178 177 182 188 186 182 172 135 132 165 227 180 170 189 205 201 205 205 200 204 197 163 108
197 196 188 179 181 184 187 190 190 194 199 203 205 205 205 205 205 203 202 202 202 202 201 201 200 199 196 192 191 193 195 199 203 205 208 211 215 217 219 221 222 224 229 233 236 237 231 226 222 215 208 205 204 203 202 202 201 198 199 201 202 200 193 185 188 193 192 194 199 187 190 224 177 156 151 180 204 204 216 215 210 212 204 186 140
205 200 187 183 186 184 185 187 190 199 205 204 203 205 205 205 204 203 203 202 201 201 201 200 198 198 197 194 193 192 192 197 202 205 208 211 215 216 217 219 221 224 227 231 233 233 228 222 218 214 211 209 208 207 206 207 206 203 204 207 207 207 203 195 195 195 193 201 210 204 200 198 167 161 164 158 160 206 221 213 212 215 207 195 176
209 200 181 182 187 185 188 190 195 203 206 200 200 205 205 204 203 203 203 202 201 201 201 200 199 198 198 197 197 197 197 198 201 203 207 211 213 214 216 218 221 223 226 229 231 229 223 218 214 211 210 210 211 211 211 210 207 205 207 210 211 212 213 210 204 199 198 203 205 199 191 177 175 177 185 174 141 173 206 203 208 212 210 200 188
211 201 185 184 186 188 194 197 201 205 203 197 199 203 203 202 202 202 202 202 202 202 202 201 201 200 198 196 197 198 199 200 201 202 204 208 211 212 214 216 219 222 224 227 228 226 221 216 213 210 210 212 212 212 213 211 209 209 211 213 215 217 220 222 217 210 208 207 203 201 192 173 179 188 190 180 148 143 184 204 193 194 206 204 199
217 209 196 192 191 191 196 200 204 206 202 198 199 200 200 200 200 201 202 202 202 203 202 202 202 201 199 198 198 196 196 197 198 199 201 204 207 209 211 214 217 220 222 224 223 222 220 216 214 212 211 214 214 213 213 213 214 217 220 222 223 223 223 224 225 223 220 216 211 207 196 179 176 177 183 185 169 141 161 193 185 182 191 197 204
210 213 209 204 201 198 197 199 203 202 199 196 196 198 198 198 199 200 202 202 203 203 203 203 202 202 201 201 199 196 193 192 192 194 197 200 203 206 209 212 216 219 220 219 218 218 218 215 214 214 214 216 218 220 221 219 221 225 229 229 228 227 226 225 226 227 223 219 218 216 211 206 204 203 200 196 188 168 153 168 184 185 181 179 194
200 206 211 208 205 203 199 200 200 196 193 193 196 198 197 196 197 198 201 203 203 203 203 203 202 202 203 202 201 197 194 193 192 193 195 197 201 204 207 210 213 214 215 215 214 214 215 213 213 215 217 220 222 227 231 231 232 233 233 232 230 228 227 227 226 225 224 221 221 223 224 226 227 229 223 211 207 204 185 159 168 176 164 141 149
197 200 206 206 203 200 196 197 195 190 192 195 197 197 196 196 197 197 201 202 202 202 202 202 202 202 202 202 201 198 197 196 195 196 197 198 201 204 205 207 208 209 210 212 212 212 213 213 215 218 222 225 230 233 235 237 237 237 236 233 232 230 229 229 229 228 229 229 228 227 228 231 235 238 235 226 219 209 188 158 159 167 146 132 137
196 197 200 204 204 201 197 196 193 192 195 196 197 197 195 195 196 199 201 201 200 202 202 202 202 202 202 202 201 199 198 198 197 199 200 201 203 207 209 210 211 211 211 212 211 211 213 216 218 223 226 230 235 238 238 238 237 237 236 235 234 234 232 232 231 231 232 232 232 232 233 236 239 238 235 231 223 211 195 170 153 138 127 137 139
197 197 199 202 203 201 200 198 195 196 197 196 196 196 196 196 197 199 200 199 199 200 201 202 202 202 202 202 202 200 200 199 199 202 203 203 206 209 211 213 215 215 214 213 211 212 215 218 221 226 231 234 237 239 239 237 236 234 234 234 234 234 233 232 231 232 233 233 233 233 236 239 241 239 235 234 230 222 214 192 168 145 112 129 140
205 201 199 202 204 202 201 200 199 200 198 197 195 195 197 198 198 199 199 198 197 199 201 202 202 202 203 202 201 201 201 200 199 203 205 206 209 211 213 215 217 217 215 213 212 214 217 221 224 227 231 235 237 237 237 235 234 234 233 233 233 232 232 232 232 233 234 234 233 234 237 239 238 234 227 226 226 223 222 212 190 173 159 139 155
207 206 201 201 202 203 204 203 203 202 199 197 197 197 198 199 198 198 196 195 197 199 201 201 202 202 202 202 201 200 201 201 200 202 205 207 211 213 214 215 216 216 215 214 214 217 220 223 226 228 230 234 235 234 234 234 234 236 236 236 235 233 231 230 231 232 231 230 229 230 232 230 225 218 214 214 216 217 219 220 212 197 182 164 148
206 206 205 203 201 201 203 205 206 204 200 200 201 200 200 200 197 194 193 195 197 198 198 200 202 201 202 202 201 201 202 201 201 204 205 206 209 210 212 214 215 217 216 216 216 218 221 223 226 228 230 231 231 231 231 232 233 235 236 236 235 233 230 227 226 226 225 222 219 218 217 215 210 206 209 212 213 219 221 219 220 211 198 186 172
212 207 208 208 206 204 203 206 207 204 202 203 204 202 200 199 196 194 196 197 196 195 196 200 202 202 203 202 200 201 202 201 202 204 205 206 208 210 211 214 216 217 217 218 218 218 219 222 224 226 228 228 227 227 228 230 232 233 234 234 233 230 227 223 220 218 216 213 210 208 206 205 206 205 210 217 218 222 226 224 219 211 207 203 188
218 211 212 210 210 209 205 207 208 204 202 201 199 198 199 198 195 195 197 196 194 194 196 199 201 202 202 200 199 201 200 200 201 204 204 206 209 211 212 214 216 217 218 220 220 218 219 220 221 223 224 224 224 224 226 228 230 232 233 233 231 226 222 219 215 210 208 208 207 206 205 205 207 210 213 219 223 222 222 223 221 213 212 213 198
215 211 213 212 212 211 209 210 210 205 200 196 194 196 197 196 194 194 195 194 195 196 197 198 199 200 200 198 198 200 199 199 201 203 205 207 210 212 213 214 216 217 219 220 219 219 219 219 220 222 223 223 223 224 225 227 228 229 229 229 226 221 216 213 211 207 204 205 207 206 205 204 206 212 214 214 216 217 218 217 218 218 214 210 200
214 211 211 211 210 211 211 210 204 195 192 192 193 193 193 194 195 194 193 194 196 196 196 197 196 198 199 197 197 198 198 198 200 202 204 207 210 212 214 214 215 217 219 219 219 218 218 219 220 222 223 222 223 225 226 227 227 226 224 221 219 215 211 209 207 207 204 203 206 207 203 198 198 203 203 203 203 203 208 210 209 214 211 201 197
215 213 213 211 209 209 208 204 194 189 191 191 191 191 193 195 194 192 193 195 196 196 195 194 194 196 196 195 195 196 195 196 199 201 203 206 210 212 213 214 215 216 217 217 219 218 218 218 220 222 222 222 223 225 227 228 227 226 221 217 215 212 211 210 208 206 204 203 204 203 199 194 190 190 189 188 189 189 192 196 193 196 197 189 190
220 215 217 217 214 209 200 195 192 192 190 189 191 193 194 194 193 193 195 195 195 194 193 193 193 194 193 192 193 194 193 195 198 201 202 206 210 211 212 213 214 215 214 215 217 219 218 218 218 220 221 221 224 225 227 228 228 226 222 217 214 212 212 213 211 208 206 204 203 200 196 191 188 186 184 181 179 176 178 181 177 179 185 182 181
226 217 217 218 217 208 193 189 192 193 191 190 192 194 193 193 193 193 194 193 192 192 192 192 191 190 190 191 191 192 192 195 198 200 201 205 208 209 210 211 212 212 211 213 215 216 217 218 219 220 221 222 226 228 229 229 228 225 223 220 217 214 213 213 212 211 208 206 205 201 195 192 190 187 182 179 177 172 170 171 170 171 175 176 176
230 220 217 215 209 200 196 196 193 193 192 191 191 192 192 192 193 193 192 190 190 191 191 190 189 188 189 190 190 191 192 195 198 199 201 203 206 207 207 207 209 209 209 211 214 215 216 218 220 221 223 225 228 231 233 232 228 224 221 220 218 216 214 212 212 212 210 208 206 203 199 196 194 191 185 179 177 175 173 170 169 170 173 174 175
230 222 219 212 200 197 200 199 195 193 192 190 190 191 190 190 191 191 190 187 188 190 189 189 189 188 189 190 190 191 192 194 197 198 200 202 203 205 205 205 206 207 207 210 214 216 217 218 221 222 223 226 229 231 232 231 228 224 219 218 216 215 213 211 210 210 209 209 207 204 201 197 196 194 190 184 180 177 173 169 172 176 177 176 174
228 221 217 206 198 200 200 198 197 192 190 189 190 190 188 188 188 187 187 186 187 188 188 188 188 188 190 190 190 191 191 193 195 196 198 200 201 201 202 203 204 205 208 210 214 216 217 218 220 222 223 226 228 230 230 228 225 222 219 217 215 214 211 208 208 208 207 207 206 202 199 199 199 197 196 193 187 180 172 168 192 201 190 182 176
228 218 210 201 198 200 198 197 195 189 186 186 186 186 186 186 186 185 185 186 187 187 187 187 188 189 190 189 188 189 191 192 193 194 195 197 198 198 199 201 202 205 208 210 212 215 216 216 217 219 221 224 226 229 230 228 223 220 218 217 214 213 211 207 205 203 202 202 200 197 196 197 196 196 201 200 192 193 190 183 202 210 201 191 181
232 221 208 199 198 197 194 193 190 186 185 183 182 183 184 184 184 184 185 186 186 186 186 186 188 190 189 187 186 188 189 190 191 192 193 194 195 196 197 199 202 205 207 208 209 212 215 215 215 216 218 221 225 229 230 228 225 221 217 215 213 211 210 208 204 199 196 195 194 193 191 191 193 196 201 201 199 207 210 200 209 214 209 199 186
239 232 222 210 200 193 189 189 190 188 186 184 183 183 183 182 182 183 184 185 185 186 187 187 189 188 186 184 185 186 188 189 190 191 192 193 194 195 197 199 201 203 205 207 208 210 213 214 215 216 218 220 224 228 228 226 223 221 218 214 212 211 209 208 206 200 194 189 188 190 192 196 199 199 201 206 210 214 208 203 216 220 214 206 194
234 237 240 229 208 193 187 187 188 187 186 185 182 179 180 182 183 183 184 183 184 186 187 188 188 186 184 183 184 185 187 188 190 190 191 192 193 194 195 196 198 200 202 204 206 209 211 212 213 215 217 220 224 227 226 223 220 220 219 217 214 212 210 208 207 203 198 193 191 194 198 203 204 203 207 212 212 206 201 204 211 213 209 206 202
229 220 221 221 210 200 194 190 187 186 186 184 180 178 181 183 182 181 180 181 185 187 186 187 186 184 183 183 184 185 186 188 189 190 190 190 191 192 193 194 196 198 200 201 204 208 209 210 211 214 216 220 223 225 223 220 219 218 218 218 217 214 213 211 209 206 202 199 197 198 200 203 205 208 212 211 203 200 204 206 203 203 202 199 196
247 217 201 196 192 185 181 181 182 183 183 181 181 182 183 182 180 179 180 183 185 186 186 186 185 184 184 184 184 185 186 187 188 189 189 190 190 192 194 196 196 197 198 199 202 205 206 208 212 214 216 219 220 222 221 217 217 217 217 218 218 216 216 215 212 209 205 203 202 203 204 204 206 210 208 204 204 206 210 209 200 196 196 195 193
264 222 191 175 166 157 154 164 171 174 177 179 181 182 179 178 179 179 181 184 185 184 186 185 184 184 184 184 184 185 185 186 188 188 189 190 191 192 194 196 197 197 199 200 202 204 205 207 211 213 215 218 219 221 219 215 214 215 216 218 217 216 216 215 212 210 208 207 208 210 211 210 210 209 207 206 209 211 213 211 200 192 194 196 196
267 224 195 170 158 155 152 154 161 166 171 175 179 178 175 175 179 181 183 184 184 184 185 184 183 183 183 184 185 184 184 185 186 187 189 191 191 192 194 197 198 198 198 199 201 203 204 206 209 212 214 216 218 219 216 213 213 214 214 215 215 215 215 213 213 212 211 211 212 214 216 215 214 216 215 213 213 215 217 212 198 192 195 200 203
277 189 164 155 148 147 147 147 152 157 162 166 169 170 170 172 177 180 181 182 183 186 185 184 184 184 184 185 184 182 183 184 185 187 189 190 192 194 195 196 196 195 195 197 199 201 203 206 207 210 213 214 216 217 214 212 212 212 212 212 212 213 213 213 214 214 213 213 216 219 219 215 218 227 226 218 217 218 217 210 199 195 199 206 210
258 138 133 145 144 144 148 150 150 152 157 159 160 162 163 165 171 177 181 183 186 189 189 187 187 186 185 185 184 183 184 184 186 189 189 189 194 197 196 195 195 195 195 197 198 200 203 206 208 211 213 214 215 215 212 212 213 213 212 211 211 211 211 213 215 214 214 215 217 220 219 218 225 234 227 220 221 220 215 209 202 199 205 213 217
231 158 136 142 141 140 147 149 146 149 156 160 162 164 163 166 175 180 182 187 192 195 193 190 189 188 187 185 185 185 185 186 189 191 189 192 197 198 195 193 194 195 195 197 200 202 203 205 209 213 213 214 215 214 211 211 212 213 212 212 212 210 210 213 214 213 213 215 217 219 218 221 231 235 225 222 225 221 214 210 206 205 211 219 223
236 165 141 139 139 141 148 153 154 156 159 162 165 167 167 171 176 178 188 198 200 197 195 194 192 189 187 186 185 186 188 189 191 190 191 196 198 195 191 190 192 194 196 199 202 202 201 201 206 210 211 213 215 213 211 210 211 213 214 214 213 212 212 212 212 213 213 214 215 216 217 224 232 230 224 226 228 222 214 211 209 211 218 225 229
245 169 143 140 148 155 158 160 161 160 160 165 167 167 170 174 174 182 196 200 195 194 202 204 199 192 188 186 185 188 190 192 192 191 194 198 197 192 190 191 192 192 195 199 201 199 197 199 204 208 209 211 214 214 211 209 209 212 215 216 216 215 216 216 214 214 216 215 215 216 220 227 230 224 223 227 226 221 216 214 216 220 226 234 237
306 177 151 141 147 155 154 152 157 161 164 167 168 168 171 174 182 198 202 195 191 199 207 206 199 193 189 186 186 189 191 192 193 194 195 194 192 190 190 191 191 191 192 195 196 195 194 197 201 204 208 209 212 214 211 209 210 211 213 217 219 219 220 220 217 215 217 218 221 223 225 228 225 219 220 223 222 220 219 220 225 230 232 237 241
341 320 171 147 143 149 154 156 160 167 171 171 171 172 172 179 199 211 206 194 195 202 202 196 191 189 186 185 186 189 190 191 194 196 194 188 185 186 189 191 192 189 186 188 191 190 189 189 192 200 207 209 210 212 211 210 211 212 213 218 221 221 222 222 220 219 221 222 225 228 230 230 223 216 216 217 216 219 221 224 229 229 227 232 238
344 335 329 161 153 152 159 166 170 175 178 179 180 180 180 194 210 213 199 188 191 191 187 187 188 187 185 187 189 190 192 194 195 194 192 188 185 185 188 192 193 186 181 184 186 183 183 186 192 199 203 206 208 210 211 213 214 213 214 217 220 221 223 223 223 225 226 226 227 230 233 230 220 215 216 216 214 216 220 224 226 224 226 231 236
343 342 348 354 139 146 153 167 176 179 182 185 187 186 190 203 211 205 189 185 185 183 186 189 188 186 187 188 189 190 193 195 194 191 190 188 186 184 186 190 190 185 182 183 183 183 186 189 193 195 199 203 207 209 211 214 217 216 217 218 219 221 223 224 225 227 229 230 229 231 236 231 220 215 217 219 218 218 221 224 226 228 231 233 235
342 346 354 356 13 120 138 156 180 188 189 192 193 194 198 204 202 193 190 190 186 184 186 187 186 187 188 188 187 188 190 192 192 191 190 189 188 186 184 184 185 185 185 184 183 185 189 189 190 195 199 202 205 207 210 214 217 219 219 219 218 220 223 225 227 229 231 231 230 231 235 230 221 217 219 222 223 223 224 226 228 230 233 234 236
348 354 357 1 13 48 119 144 171 191 194 195 198 200 203 201 193 190 191 190 187 186 184 184 186 188 189 188 186 185 186 188 188 187 186 188 189 186 181 181 184 183 183 184 186 188 189 189 189 193 195 197 201 206 208 211 214 218 219 218 217 219 221 223 225 228 229 229 229 231 233 231 225 223 224 226 226 226 227 227 227 230 233 235 237
360 7 9 20 42 49 84 113 132 169 181 187 193 198 199 194 190 191 190 187 186 185 183 184 185 186 186 187 185 182 182 183 183 181 181 184 187 184 181 185 188 185 184 186 188 190 192 190 188 188 190 193 200 206 208 210 212 215 216 215 215 217 219 220 223 225 227 228 230 230 230 230 228 226 226 225 225 226 228 229 230 231 233 235 237
6 17 33 63 90 103 111 112 127 156 170 179 185 191 195 194 194 194 191 188 187 187 186 186 184 181 180 180 181 181 181 180 180 180 181 185 188 187 187 189 190 191 194 196 196 197 199 195 191 194 196 196 201 208 211 213 214 215 216 216 216 216 218 220 223 225 225 224 224 224 224 225 223 222 221 220 221 224 228 229 230 231 232 234 235
17 25 35 43 57 94 118 131 152 169 178 186 190 193 196 199 200 197 193 189 186 185 186 186 181 176 174 175 178 181 181 179 178 176 174 178 183 187 190 192 193 197 202 205 206 208 208 203 199 202 206 209 214 216 215 216 218 219 220 222 222 221 220 220 221 222 220 219 218 218 219 219 217 217 216 215 217 221 225 228 230 231 232 234 235
24 28 28 29 33 42 52 67 125 179 192 200 204 202 200 202 201 198 196 193 188 186 188 187 181 176 175 176 179 181 179 177 176 173 169 167 169 176 185 193 198 201 203 207 212 215 214 211 208 208 209 213 219 221 219 219 220 221 223 226 226 224 222 221 220 217 214 214 215 215 215 215 215 216 217 217 218 221 224 228 230 232 234 235 236